Date,TemperatureHighF,TemperatureAvgF,TemperatureLowF,DewpointHighF,DewpointAvgF,DewpointLowF,HumidityHigh,HumidityAvg,HumidityLow,PressureMaxIn,PressureMinIn,WindSpeedMaxMPH,WindSpeedAvgMPH,GustSpeedMaxMPH,PrecipitationSumIn
2013-1-1,14,4,-7,-100,-100,-100,0,0,100,0.00,40.00,0,-999,0,0.00
2013-1-2,-1,-10,-15,-100,-100,-100,0,0,100,0.00,40.00,0,-999,0,0.00
2013-1-3,-1,-10,-19,-100,-100,-100,0,0,100,0.00,40.00,0,-999,0,0.00
2013-1-4,1,-10,-18,-100,-100,-100,0,0,100,0.00,40.00,0,-999,0,0.00
2013-1-5,2,-8,-17,-100,-100,-100,0,0,100,0.00,40.00,0,-999,0,0.00
2013-1-6,14,2,-10,-100,-100,-100,0,0,100,0.00,40.00,0,-999,0,0.00
2013-1-7,15,4,-8,-100,-100,-100,0,0,100,0.00,40.00,0,-999,0,0.00
2013-1-8,25,19,14,-100,-100,-100,0,0,100,0.00,40.00,0,-999,0,0.00
2013-1-9,29,24,17,-100,-100,-100,0,0,100,0.00,40.00,0,-999,0,0.00
2013-1-10,35,25,14,-100,-100,-100,0,0,100,0.00,40.00,0,-999,0,0.00
2013-1-11,15,11,3,-100,-100,-100,0,0,100,0.00,40.00,0,-999,0,0.00
2013-1-12,2,-7,-16,-100,-100,-100,0,0,100,0.00,40.00,0,-999,0,0.00
2013-1-13,-3,-12,-21,-100,-100,-100,0,0,100,0.00,40.00,0,-999,0,0.00
2013-1-14,-4,-11,-23,-100,-100,-100,0,0,100,0.00,40.00,0,-999,0,0.00
2013-1-15,9,3,-5,-100,-100,-100,0,0,100,0.00,40.00,0,-999,0,0.00
2013-1-16,16,10,2,-100,-100,-100,0,0,100,0.00,40.00,0,-999,0,0.00
2013-1-17,7,0,-8,-100,-100,-100,0,0,100,0.00,40.00,0,-999,0,0.00
2013-1-18,7,-5,-13,-100,-100,-100,0,0,100,0.00,40.00,0,-999,0,0.00
2013-1-19,7,-6,-14,-100,-100,-100,0,0,100,0.00,40.00,0,-999,0,0.00
2013-1-20,7,-4,-14,-100,-100,-100,0,0,100,0.00,40.00,0,-999,0,0.00
2013-1-21,9,-4,-13,-100,-100,-100,0,0,100,0.00,40.00,0,-999,0,0.00
2013-1-22,12,-4,-15,-100,-100,-100,0,0,100,0.00,40.00,0,-999,0,0.00
2013-1-23,18,5,-7,-100,-100,-100,0,0,100,0.00,40.00,0,-999,0,0.00
2013-1-24,30,24,4,-100,-100,-100,0,0,100,0.00,40.00,0,-999,0,0.00
2013-1-25,35,29,26,-100,-100,-100,0,0,100,0.00,40.00,0,-999,0,0.00
2013-1-26,32,30,28,-100,-100,-100,0,0,100,0.00,40.00,0,-999,0,0.00
2013-1-27,30,25,18,-100,-100,-100,0,0,100,0.00,40.00,0,-999,0,0.00
2013-1-28,20,17,15,-100,-100,-100,0,0,100,0.00,40.00,0,-999,0,0.00
2013-1-29,21,16,13,-100,-100,-100,0,0,100,0.00,40.00,0,-999,0,0.00
2013-1-30,29,24,18,-100,-100,-100,0,0,100,0.00,40.00,0,-999,0,0.00
2013-1-31,30,29,27,-100,-100,-100,0,0,100,0.00,40.00,0,-999,0,0.00
2013-2-1,29,28,15,-100,-100,-100,0,0,100,0.00,40.00,0,-999,0,0.00
2013-2-2,26,13,6,-100,-100,-100,0,0,100,0.00,40.00,0,-999,0,0.00
2013-2-3,23,11,4,-100,-100,-100,0,0,100,0.00,40.00,0,-999,0,0.00
2013-2-4,28,15,4,-100,-100,-100,0,0,100,0.00,40.00,0,-999,0,0.00
2013-2-5,38,27,19,-100,-100,-100,0,0,100,0.00,40.00,0,-999,0,0.00
2013-2-6,31,22,11,-100,-100,-100,0,0,100,0.00,40.00,0,-999,0,0.00
2013-2-7,22,13,1,-100,-100,-100,0,0,100,0.00,40.00,0,-999,0,0.00
2013-2-8,23,19,14,-100,-100,-100,0,0,100,0.00,40.00,0,-999,0,0.00
2013-2-9,21,19,17,-100,-100,-100,0,0,100,0.00,40.00,0,-999,0,0.00
2013-2-10,20,17,7,-100,-100,-100,0,0,100,0.00,40.00,0,-999,0,0.00
2013-2-11,10,2,-9,-100,-100,-100,0,0,100,0.00,40.00,0,-999,0,0.00
2013-2-12,20,13,-3,-100,-100,-100,0,0,100,0.00,40.00,0,-999,0,0.00
2013-2-13,24,21,17,-100,-100,-100,0,0,100,0.00,40.00,0,-999,0,0.00
2013-2-14,29,23,10,-100,-100,-100,0,0,100,0.00,40.00,0,-999,0,0.00
2013-2-15,29,16,2,-100,-100,-100,0,0,100,0.00,40.00,0,-999,0,0.00
2013-2-16,32,18,1,-100,-100,-100,0,0,100,0.00,40.00,0,-999,0,0.00
2013-2-17,28,20,7,-100,-100,-100,0,0,100,0.00,40.00,0,-999,0,0.00
2013-2-18,26,17,8,-100,-100,-100,0,0,100,0.00,40.00,0,-999,0,0.00
2013-2-19,27,17,6,-100,-100,-100,0,0,100,0.00,40.00,0,-999,0,0.00
2013-2-20,28,21,15,-100,-100,-100,0,0,100,0.00,40.00,0,-999,0,0.00
2013-2-21,23,18,14,-100,-100,-100,0,0,100,0.00,40.00,0,-999,0,0.00
2013-2-22,24,20,13,-100,-100,-100,0,0,100,0.00,40.00,0,-999,0,0.00
2013-2-23,22,18,5,-100,-100,-100,0,0,100,0.00,40.00,0,-999,0,0.00
2013-2-24,21,15,1,-100,-100,-100,0,0,100,0.00,40.00,0,-999,0,0.00
2013-2-25,22,15,-3,-100,-100,-100,0,0,100,0.00,40.00,0,-999,0,0.00
2013-2-26,22,16,3,-100,-100,-100,0,0,100,0.00,40.00,0,-999,0,0.00
2013-2-27,21,7,-9,-100,-100,-100,0,0,100,0.00,40.00,0,-999,0,0.00
2013-2-28,27,15,-3,-100,-100,-100,0,0,100,0.00,40.00,0,-999,0,0.00
2013-3-1,31,26,19,-100,-100,-100,0,0,100,0.00,40.00,0,-999,0,0.00
2013-3-2,40,31,16,-100,-100,-100,0,0,100,0.00,40.00,0,-999,0,0.00
2013-3-3,32,30,27,-100,-100,-100,0,0,100,0.00,40.00,0,-999,0,0.00
2013-3-4,23,19,7,-100,-100,-100,0,0,100,0.00,40.00,0,-999,0,0.00
2013-3-5,29,18,1,-100,-100,-100,0,0,100,0.00,40.00,0,-999,0,0.00
2013-3-6,39,28,14,-100,-100,-100,0,0,100,0.00,40.00,0,-999,0,0.00
2013-3-7,29,24,19,-100,-100,-100,0,0,100,0.00,40.00,0,-999,0,0.00
2013-3-8,34,26,22,-100,-100,-100,0,0,100,0.00,40.00,0,-999,0,0.00
2013-3-9,32,27,20,-100,-100,-100,0,0,100,0.00,40.00,0,-999,0,0.00
2013-3-10,21,18,16,-100,-100,-100,0,0,100,0.00,40.00,0,-999,0,0.00
2013-3-11,36,34,28,-100,-100,-100,0,0,100,0.00,40.00,0,-999,0,0.00
2013-3-12,39,32,19,-100,-100,-100,0,0,100,0.00,40.00,0,-999,0,0.00
2013-3-13,47,35,19,-100,-100,-100,0,0,100,0.00,40.00,0,-999,0,0.00
2013-3-14,51,38,23,-100,-100,-100,0,0,100,0.00,40.00,0,-999,0,0.00
2013-3-15,49,37,23,-100,-100,-100,0,0,100,0.00,40.00,0,-999,0,0.00
2013-3-16,43,37,28,-100,-100,-100,0,0,100,0.00,40.00,0,-999,0,0.00
2013-3-17,36,28,25,-100,-100,-100,0,0,100,0.00,40.00,0,-999,0,0.00
2013-3-18,33,27,22,-100,-100,-100,0,0,100,0.00,40.00,0,-999,0,0.00
2013-3-19,41,29,14,-100,-100,-100,0,0,100,0.00,40.00,0,-999,0,0.00
2013-3-20,34,30,22,-100,-100,-100,0,0,100,0.00,40.00,0,-999,0,0.00
2013-3-21,35,26,22,-100,-100,-100,0,0,100,0.00,40.00,0,-999,0,0.00
2013-3-22,27,20,14,-100,-100,-100,0,0,100,0.00,40.00,0,-999,0,0.00
2013-3-23,23,16,4,-100,-100,-100,0,0,100,0.00,40.00,0,-999,0,0.00
2013-3-24,25,16,7,-100,-100,-100,0,0,100,0.00,40.00,0,-999,0,0.00
2013-3-25,35,20,6,-100,-100,-100,0,0,100,0.00,40.00,0,-999,0,0.00
2013-3-26,40,28,22,-100,-100,-100,0,0,100,0.00,40.00,0,-999,0,0.00
2013-3-27,47,32,18,-100,-100,-100,0,0,100,0.00,40.00,0,-999,0,0.00
2013-3-28,54,39,23,-100,-100,-100,0,0,100,0.00,40.00,0,-999,0,0.00
2013-3-29,53,39,24,-100,-100,-100,0,0,100,0.00,40.00,0,-999,0,0.00
2013-3-30,50,37,26,-100,-100,-100,0,0,100,0.00,40.00,0,-999,0,0.00
2013-3-31,57,40,21,-100,-100,-100,0,0,100,0.00,40.00,0,-999,0,0.00
2013-4-1,53,40,24,-100,-100,-100,0,0,100,0.00,40.00,0,-999,0,0.00
2013-4-2,54,41,28,-100,-100,-100,0,0,100,0.00,40.00,0,-999,0,0.00
2013-4-3,55,42,21,-100,-100,-100,0,0,100,0.00,40.00,0,-999,0,0.00
2013-4-4,58,45,25,-100,-100,-100,0,0,100,0.00,40.00,0,-999,0,0.00
2013-4-5,47,42,35,-100,-100,-100,0,0,100,0.00,40.00,0,-999,0,0.00
2013-4-6,44,36,26,-100,-100,-100,0,0,100,0.00,40.00,0,-999,0,0.00
2013-4-7,40,33,28,-100,-100,-100,0,0,100,0.00,40.00,0,-999,0,0.00
2013-4-8,32,30,25,-100,-100,-100,0,0,100,0.00,40.00,0,-999,0,0.00
2013-4-9,32,23,18,-100,-100,-100,0,0,100,0.00,40.00,0,-999,0,0.00
2013-4-10,45,32,16,-100,-100,-100,0,0,100,0.00,40.00,0,-999,0,0.00
2013-4-11,44,38,34,-100,-100,-100,0,0,100,0.00,40.00,0,-999,0,0.00
2013-4-12,49,38,21,-100,-100,-100,0,0,100,0.00,40.00,0,-999,0,0.00
2013-4-13,41,36,29,-100,-100,-100,0,0,100,0.00,40.00,0,-999,0,0.00
2013-4-14,34,25,16,-100,-100,-100,0,0,100,0.00,40.00,0,-999,0,0.00
2013-4-15,29,26,18,-100,-100,-100,0,0,100,0.00,40.00,0,-999,0,0.00
2013-4-16,29,24,21,-100,-100,-100,0,0,100,0.00,40.00,0,-999,0,0.00
2013-4-17,30,24,17,-100,-100,-100,0,0,100,0.00,40.00,0,-999,0,0.00
2013-4-18,40,25,10,-100,-100,-100,0,0,100,0.00,40.00,0,-999,0,0.00
2013-4-19,35,30,23,-100,-100,-100,0,0,100,0.00,40.00,0,-999,0,0.00
2013-4-20,42,34,31,-100,-100,-100,0,0,100,0.00,40.00,0,-999,0,0.00
2013-4-21,48,38,25,-100,-100,-100,0,0,100,0.00,40.00,0,-999,0,0.00
2013-4-22,42,33,25,-100,-100,-100,0,0,100,0.00,40.00,0,-999,0,0.00
2013-4-23,40,30,13,-100,-100,-100,0,0,100,0.00,40.00,0,-999,0,0.00
2013-4-24,47,35,14,-100,-100,-100,0,0,100,0.00,40.00,0,-999,0,0.00
2013-4-25,53,37,16,-100,-100,-100,0,0,100,0.00,40.00,0,-999,0,0.00
2013-4-26,60,45,19,-100,-100,-100,0,0,100,0.00,40.00,0,-999,0,0.00
2013-4-27,62,47,22,-100,-100,-100,0,0,100,0.00,40.00,0,-999,0,0.00
2013-4-28,56,47,32,-100,-100,-100,0,0,100,0.00,40.00,0,-999,0,0.00
2013-4-29,51,46,33,-100,-100,-100,0,0,100,0.00,40.00,0,-999,0,0.00
2013-4-30,45,40,29,-100,-100,-100,0,0,100,0.00,40.00,0,-999,0,0.00
2013-5-1,39,30,24,-100,-100,-100,0,0,100,0.00,40.00,0,-999,0,0.00
2013-5-2,51,36,14,-100,-100,-100,0,0,100,0.00,40.00,0,-999,0,0.00
2013-5-3,57,42,22,-100,-100,-100,0,0,100,0.00,40.00,0,-999,0,0.00
2013-5-4,53,46,39,-100,-100,-100,0,0,100,0.00,40.00,0,-999,0,0.00
2013-5-5,60,50,32,-100,-100,-100,0,0,100,0.00,40.00,0,-999,0,0.00
2013-5-6,58,48,32,-100,-100,-100,0,0,100,0.00,40.00,0,-999,0,0.00
2013-5-7,43,42,38,-100,-100,-100,0,0,100,0.00,40.00,0,-999,0,0.00
2013-5-8,56,46,34,-100,-100,-100,0,0,100,0.00,40.00,0,-999,0,0.00
2013-5-9,57,45,31,-100,-100,-100,0,0,100,0.00,40.00,0,-999,0,0.00
2013-5-10,64,49,29,-100,-100,-100,0,0,100,0.00,40.00,0,-999,0,0.00
2013-5-11,69,54,33,-100,-100,-100,0,0,100,0.00,40.00,0,-999,0,0.00
2013-5-12,73,57,31,-100,-100,-100,0,0,100,0.00,40.00,0,-999,0,0.00
2013-5-13,75,66,34,-100,-100,-100,0,0,100,0.00,40.00,0,-999,0,0.00
2013-5-14,74,58,41,-100,-100,-100,0,0,100,0.00,40.00,0,-999,0,0.00
2013-5-15,70,54,40,-100,-100,-100,0,0,100,0.00,40.00,0,-999,0,0.00
2013-5-16,62,50,41,-100,-100,-100,0,0,100,0.00,40.00,0,-999,0,0.00
2013-5-17,47,44,41,-100,-100,-100,0,0,100,0.00,40.00,0,-999,0,0.00
2013-5-18,44,41,38,-100,-100,-100,0,0,100,0.00,40.00,0,-999,0,0.00
2013-5-19,47,41,32,-100,-100,-100,0,0,100,0.00,40.00,0,-999,0,0.00
2013-5-20,54,46,40,-100,-100,-100,0,0,100,0.00,40.00,0,-999,0,0.00
2013-5-21,59,48,29,-100,-100,-100,0,0,100,0.00,40.00,0,-999,0,0.00
2013-5-22,58,47,36,-100,-100,-100,0,0,100,0.00,40.00,0,-999,0,0.00
2013-5-23,55,42,25,-100,-100,-100,0,0,100,0.00,40.00,0,-999,0,0.00
2013-5-24,57,42,24,-100,-100,-100,0,0,100,0.00,40.00,0,-999,0,0.00
2013-5-25,64,53,30,-100,-100,-100,0,0,100,0.00,40.00,0,-999,0,0.00
2013-5-26,62,53,35,-100,-100,-100,0,0,100,0.00,40.00,0,-999,0,0.00
2013-5-27,55,48,32,-100,-100,-100,0,0,100,0.00,40.00,0,-999,0,0.00
2013-5-28,46,43,33,-100,-100,-100,0,0,100,0.00,40.00,0,-999,0,0.00
2013-5-29,53,45,39,-100,-100,-100,0,0,100,0.00,40.00,0,-999,0,0.00
2013-5-30,52,42,33,-100,-100,-100,0,0,100,0.00,40.00,0,-999,0,0.00
2013-5-31,56,47,31,-100,-100,-100,0,0,100,0.00,40.00,0,-999,0,0.00
2013-6-1,63,48,25,-100,-100,-100,0,0,100,0.00,40.00,0,-999,0,0.00
2013-6-2,70,52,29,-100,-100,-100,0,0,100,0.00,40.00,0,-999,0,0.00
2013-6-3,59,50,28,-100,-100,-100,0,0,100,0.00,40.00,0,-999,0,0.00
2013-6-4,59,40,25,-100,-100,-100,0,0,100,0.00,40.00,0,-999,0,0.00
2013-6-5,67,52,28,-100,-100,-100,0,0,100,0.00,40.00,0,-999,0,0.00
2013-6-6,69,52,33,-100,-100,-100,0,0,100,0.00,40.00,0,-999,0,0.00
2013-6-7,73,54,35,-100,-100,-100,0,0,100,0.00,40.00,0,-999,0,0.00
2013-6-8,69,60,44,-100,-100,-100,0,0,100,0.00,40.00,0,-999,0,0.00
2013-6-9,77,56,35,-100,-100,-100,0,0,100,0.00,40.00,0,-999,0,0.00
2013-7-31,80,68,62,-100,-100,-100,0,0,100,0.00,40.00,0,-999,0,0.00
2013-8-1,77,66,55,-100,-100,-100,0,0,100,0.00,40.00,0,-999,0,0.00
2013-12-16,31,25,16,-100,-100,-100,0,0,100,0.00,40.00,0,-999,0,0.00
2013-12-17,35,20,5,-100,-100,-100,0,0,100,0.00,40.00,0,-999,0,0.00
2013-12-18,36,27,15,-100,-100,-100,0,0,100,0.00,40.00,0,-999,0,0.00
2013-12-19,27,22,9,-100,-100,-100,0,0,100,0.00,40.00,0,-999,0,0.00
2013-12-20,19,15,5,-100,-100,-100,0,0,100,0.00,40.00,0,-999,0,0.00
2013-12-21,22,18,14,-100,-100,-100,0,0,100,0.00,40.00,0,-999,0,0.00
2013-12-22,26,24,18,-100,-100,-100,0,0,100,0.00,40.00,0,-999,0,0.00
2013-12-23,31,28,25,-100,-100,-100,0,0,100,0.00,40.00,0,-999,0,0.00
2013-12-24,30,24,10,-100,-100,-100,0,0,100,0.00,40.00,0,-999,0,0.00
2013-12-25,20,9,-2,-100,-100,-100,0,0,100,0.00,40.00,0,-999,0,0.00
2013-12-26,25,14,2,-100,-100,-100,0,0,100,0.00,40.00,0,-999,0,0.00
2013-12-27,25,16,1,-100,-100,-100,0,0,100,0.00,40.00,0,-999,0,0.00
2013-12-28,28,22,10,-100,-100,-100,0,0,100,0.00,40.00,0,-999,0,0.00
2013-12-29,23,14,3,-100,-100,-100,0,0,100,0.00,40.00,0,-999,0,0.00
2013-12-30,28,19,8,-100,-100,-100,0,0,100,0.00,40.00,0,-999,0,0.00
2013-12-31,32,28,23,-100,-100,-100,0,0,100,0.00,40.00,0,-999,0,0.00
2014-1-1,29,24,12,-100,-100,-100,0,0,100,0.00,40.00,0,-999,0,0.00
2014-1-2,25,18,7,-100,-100,-100,0,0,100,0.00,40.00,0,-999,0,0.00